Hibbing, MN

10:22 PM CST on February 27, 2017 (GMT -0600)
Chisholm-hibbing

Weather History for KHIB - May, 2013

Change the Weather History Date:

Monday, May 13, 2013

  Actual Average Record
Temperature  
Mean Temperature 40 °F -  
Max Temperature 61 °F 62 °F 90 °F (1977)
Min Temperature 21 °F 37 °F 21 °F (1997)
Degree Days  
Heating Degree Days 24    
Moisture  
Dew Point 25 °F    
Average Humidity 54    
Maximum Humidity 85    
Minimum Humidity 26    
Precipitation  
Precipitation 0.03 in - - ()
Sea Level Pressure  
Sea Level Pressure 29.96 in    
Wind  
Wind Speed 4 mph (SSE)    
Max Wind Speed 21 mph    
Max Gust Speed 29 mph    
Visibility 10 miles    
Events Rain    
Averages and records for this station are not official NWS values.
T = Trace of Precipitation, MM = Missing Value Source: NWS Daily Summary

Daily Weather History Graph

Daily Weather History Graph

Search for Another Location

Airport or City:

Trip Planner

Search our weather history database for the weather conditions in past years. The results will help you decide how hot, cold, wet, or windy it might be!

Date:

Astronomy

May. 13, 2013 Rise Set
Actual Time 5:36 AM CDT 8:39 PM CDT
Civil Twilight 5:00 AM CDT 9:15 PM CDT
Nautical Twilight 4:14 AM CDT 10:02 PM CDT
Astronomical Twilight 3:17 AM CDT 11:00 PM CDT
Moon 8:21 AM CDT (5/13) 11:49 PM CDT (5/13)
Length of Visible Light 16h 14m
Length of Day
15h 02m
Waxing Crescent, 12% of the Moon is Illuminated
May 13
Waxing Crescent
May 17
First Quarter
May 24
Full
May 31
Last Quarter
Jun 8
New

Hourly Weather History & Observations

Time (CDT) Temp. Windchill Dew Point Humidity Pressure Visibility Wind Dir Wind Speed Gust Speed Precip Events Conditions
12:53 AM 26.1 °F - 18.0 °F 71% 30.14 in 10.0 mi Calm Calm - N/A   Clear
1:53 AM 25.0 °F - 17.1 °F 72% 30.14 in 10.0 mi Calm Calm - N/A   Clear
2:53 AM 21.9 °F - 17.1 °F 82% 30.13 in 10.0 mi Calm Calm - N/A   Clear
3:53 AM 21.9 °F - 17.1 °F 82% 30.13 in 10.0 mi Calm Calm - N/A   Clear
4:53 AM 21.9 °F - 18.0 °F 85% 30.12 in 10.0 mi Calm Calm - N/A   Clear
5:53 AM 21.9 °F - 17.1 °F 82% 30.12 in 10.0 mi Calm Calm - N/A   Clear
6:53 AM 28.9 °F - 23.0 °F 78% 30.12 in 10.0 mi Calm Calm - N/A   Clear
7:53 AM 39.0 °F 34.0 °F 19.9 °F 46% 30.10 in 10.0 mi SE 6.9 mph - N/A   Clear
8:53 AM 44.1 °F 39.0 °F 18.0 °F 35% 30.09 in 10.0 mi South 9.2 mph - N/A   Clear
9:53 AM 46.9 °F - 18.0 °F 32% 30.05 in 10.0 mi SSE 8.1 mph - N/A   Mostly Cloudy
10:53 AM 52.0 °F - 19.0 °F 27% 30.01 in 10.0 mi SSE 12.7 mph 20.7 mph N/A   Clear
11:53 AM 53.1 °F - 19.0 °F 26% 29.97 in 10.0 mi South 9.2 mph 20.7 mph N/A   Scattered Clouds
12:53 PM 52.0 °F - 25.0 °F 35% 29.97 in 10.0 mi South 9.2 mph 17.3 mph 0.00 in Rain Light Rain
1:53 PM 46.9 °F - 35.1 °F 63% 29.96 in 10.0 mi South 6.9 mph - 0.02 in Rain Light Rain
3:53 PM 57.0 °F - 34.0 °F 42% 29.84 in 10.0 mi SSE 20.7 mph 28.8 mph 0.01 in   Clear
4:53 PM 59.0 °F - 34.0 °F 39% 29.81 in 10.0 mi South 13.8 mph 25.3 mph N/A   Clear
5:53 PM 60.1 °F - 35.1 °F 39% 29.79 in 10.0 mi SSE 12.7 mph 21.9 mph N/A   Partly Cloudy
7:53 PM 59.0 °F - 35.1 °F 41% 29.71 in 10.0 mi SSE 6.9 mph - N/A   Clear
8:53 PM 55.9 °F - 35.1 °F 45% 29.70 in 10.0 mi SE 8.1 mph - N/A   Mostly Cloudy
9:53 PM 52.0 °F - 34.0 °F 50% 29.71 in 10.0 mi SE 8.1 mph - N/A   Partly Cloudy
10:53 PM 48.0 °F - 33.1 °F 56% 29.71 in 10.0 mi East 4.6 mph - N/A   Clear
11:53 PM 44.1 °F 41.5 °F 32.0 °F 63% 29.71 in 10.0 mi SE 4.6 mph - N/A   Clear